{"data":{"norad_id":48233,"epoch":"2026-09-19T23:14:13.210944Z","epoch_age_seconds":64071,"freshness":"FRESH","line1":"1 48233U 21031Z   26262.96820846 -.00000062  00000+0 -20073-3 0  9992","line2":"2 48233  87.8902 270.8078 0001526  84.2438 275.8866 13.14501793260814","mean_motion":13.14501793,"eccentricity":0.0001526,"inclination_deg":87.8902,"raan_deg":270.8078,"arg_perigee_deg":84.2438,"mean_anomaly_deg":275.8866,"bstar":-0.00020073,"rev_number":26081,"period_min":109.54720698506,"perigee_km":1204.6369199494,"apogee_km":1206.9515357601,"semimajor_km":7583.9312278547,"source":"CELESTRAK","updated_at":"2026-09-20T09:00:44.597131Z"}}